Weather History for KCGC - January, 2013

Change the Weather History Date:

Sunday, January 27, 2013

  Actual Average (KGNV) Record (KGNV)
Temperature  
Mean Temperature 62 °F 55 °F  
Max Temperature 78 °F 67 °F 89 °F (1943)
Min Temperature 46 °F 43 °F 18 °F (1940)
Degree Days  
Heating Degree Days 3 11  
Month to date heating degree days 305  
Since 1 July heating degree days 762  
Cooling Degree Days 0 0  
Month to date cooling degree days 0  
Year to date cooling degree days 0  
Growing Degree Days 12 (Base 50)    
Moisture  
Dew Point 54 °F    
Average Humidity 81    
Maximum Humidity 100    
Minimum Humidity 42    
Precipitation  
Precipitation 0.00 in 0.12 in 1.61 in (1964)
Month to date precipitation 2.85  
Year to date precipitation 2.85  
Snow  
Snow 0.00 in 0.00 in 0.00 in ()
Month to date snowfall 0.0  
Since 1 July snowfall 0.0  
Snow Depth -    
Sea Level Pressure  
Sea Level Pressure 30.28 in    
Wind  
Wind Speed 2 mph (ENE)    
Max Wind Speed 9 mph    
Max Gust Speed 16 mph    
Visibility 6 miles    
Events Fog    
T = Trace of Precipitation, MM = Missing Value Source: NWS Daily Summary

Daily Weather History Graph

Daily Weather History Graph

Search for Another Location

Airport or City:

Trip Planner

Search our weather history database for the weather conditions in past years. The results will help you decide how hot, cold, wet, or windy it might be!

Date:

Astronomy

Jan. 27, 2013 Rise Set
Actual Time 7:21 AM EST 6:05 PM EST
Civil Twilight 6:56 AM EST 6:30 PM EST
Nautical Twilight 6:27 AM EST 6:58 PM EST
Astronomical Twilight 5:59 AM EST 7:27 PM EST
Moon 6:50 PM EST (1/27) 7:19 AM EST (1/27)
Length of Visible Light 11h 34m
Length of Day
10h 44m
Full, 100% of the Moon is Illuminated
Jan 27
Full
Feb 3
Last Quarter
Feb 10
New
Feb 17
First Quarter
Feb 25
Full

Hourly Weather History & Observations

Time (EST) Temp. Dew Point Humidity Pressure Visibility Wind Dir Wind Speed Gust Speed Precip Events Conditions
12:15 AM 48.2 °F 48.2 °F 100% 30.25 in 0.5 mi Calm Calm - N/A Fog Fog
12:35 AM 48.2 °F 48.2 °F 100% 30.25 in 0.8 mi Calm Calm - N/A   Overcast
12:55 AM 48.2 °F 48.2 °F 100% 30.25 in 0.2 mi Calm Calm - N/A Fog Fog
1:15 AM 48.2 °F 48.2 °F 100% 30.26 in 0.5 mi Calm Calm - N/A Fog Fog
1:35 AM 48.2 °F 48.2 °F 100% 30.25 in 0.2 mi Calm Calm - N/A Fog Fog
1:55 AM 48.2 °F 48.2 °F 100% 30.25 in 0.2 mi Calm Calm - N/A Fog Fog
2:15 AM 48.2 °F 48.2 °F 100% 30.25 in 0.2 mi Calm Calm - N/A Fog Fog
2:35 AM 46.4 °F 46.4 °F 100% 30.25 in 0.2 mi Calm Calm - N/A Fog Fog
2:55 AM 46.4 °F 46.4 °F 100% 30.26 in 0.2 mi Calm Calm - N/A Fog Fog
3:15 AM 46.4 °F 46.4 °F 100% 30.26 in 0.2 mi Calm Calm - N/A Fog Fog
3:35 AM 46.4 °F 46.4 °F 100% 30.26 in 0.2 mi Calm Calm - N/A Fog Fog
3:55 AM 46.4 °F 46.4 °F 100% 30.26 in 0.2 mi Calm Calm - N/A Fog Fog
4:15 AM 46.4 °F 46.4 °F 100% 30.26 in 0.2 mi Calm Calm - N/A Fog Fog
4:35 AM 46.4 °F 46.4 °F 100% 30.26 in 0.2 mi Calm Calm - N/A Fog Fog
4:55 AM 46.4 °F 46.4 °F 100% 30.26 in 0.2 mi Calm Calm - N/A Fog Fog
5:15 AM 46.4 °F 46.4 °F 100% 30.26 in 0.2 mi Calm Calm - N/A Fog Fog
5:35 AM 46.4 °F 46.4 °F 100% 30.26 in 0.2 mi Calm Calm - N/A Fog Fog
5:55 AM 46.4 °F 46.4 °F 100% 30.26 in 0.2 mi Calm Calm - N/A Fog Fog
6:15 AM 46.4 °F 46.4 °F 100% 30.27 in 0.2 mi Calm Calm - N/A Fog Fog
6:35 AM 46.4 °F 46.4 °F 100% 30.27 in 0.2 mi Calm Calm - N/A Fog Fog
7:15 AM 46.4 °F 46.4 °F 100% 30.28 in 0.2 mi Calm Calm - N/A Fog Fog
7:35 AM 46.4 °F 46.4 °F 100% 30.29 in 0.2 mi Calm Calm - N/A Fog Fog
7:55 AM 46.4 °F 46.4 °F 100% 30.29 in 0.2 mi Calm Calm - N/A Fog Fog
8:15 AM 48.2 °F 48.2 °F 100% 30.30 in 0.2 mi Calm Calm - N/A Fog Fog
8:35 AM 50.0 °F 50.0 °F 100% 30.30 in 0.2 mi Calm Calm - N/A Fog Fog
8:55 AM 51.8 °F 51.8 °F 100% 30.31 in 0.2 mi Calm Calm - N/A Fog Fog
9:15 AM 53.6 °F 53.6 °F 100% 30.32 in 0.2 mi Calm Calm - N/A Fog Fog
9:35 AM 55.4 °F 55.4 °F 100% 30.32 in 0.5 mi Calm Calm - N/A Fog Fog
9:55 AM 59.0 °F 59.0 °F 100% 30.33 in 10.0 mi East 5.8 mph - N/A   Mostly Cloudy
10:15 AM 62.6 °F 60.8 °F 94% 30.33 in 10.0 mi East 5.8 mph - N/A   Scattered Clouds
10:35 AM 62.6 °F 60.8 °F 94% 30.33 in 10.0 mi ENE 5.8 mph - N/A   Clear
10:55 AM 64.4 °F 60.8 °F 88% 30.33 in 10.0 mi East 5.8 mph - N/A   Clear
11:15 AM 68.0 °F 60.8 °F 78% 30.32 in 10.0 mi East 4.6 mph - N/A   Clear
11:35 AM 71.6 °F 59.0 °F 64% 30.32 in 10.0 mi East 4.6 mph - N/A   Clear
11:55 AM 73.4 °F 59.0 °F 61% 30.31 in 10.0 mi East 6.9 mph - N/A   Clear
12:15 PM 73.4 °F 55.4 °F 53% 30.31 in 10.0 mi NE 6.9 mph - N/A   Clear
12:35 PM 73.4 °F 55.4 °F 53% 30.30 in 10.0 mi ENE 4.6 mph - N/A   Clear
12:55 PM 73.4 °F 55.4 °F 53% 30.29 in 10.0 mi ENE 5.8 mph - N/A   Clear
1:15 PM 75.2 °F 55.4 °F 50% 30.28 in 10.0 mi ENE 6.9 mph - N/A   Clear
1:35 PM 77.0 °F 55.4 °F 47% 30.27 in 10.0 mi East 6.9 mph - N/A   Clear
1:55 PM 77.0 °F 55.4 °F 47% 30.26 in 10.0 mi NE 9.2 mph - N/A   Clear
2:15 PM 77.0 °F 55.4 °F 47% 30.26 in 10.0 mi ENE 5.8 mph - N/A   Clear
2:35 PM 77.0 °F 55.4 °F 47% 30.25 in 10.0 mi East 9.2 mph 16.1 mph N/A   Clear
2:55 PM 77.0 °F 55.4 °F 47% 30.24 in 10.0 mi East 8.1 mph - N/A   Clear
3:15 PM 77.0 °F 53.6 °F 44% 30.24 in 10.0 mi ESE 5.8 mph - N/A   Clear
3:35 PM 78.8 °F 53.6 °F 42% 30.24 in 10.0 mi East 9.2 mph - N/A   Clear
3:55 PM 77.0 °F 53.6 °F 44% 30.24 in 10.0 mi ESE 8.1 mph 16.1 mph N/A   Clear
4:15 PM 77.0 °F 55.4 °F 47% 30.24 in 10.0 mi East 6.9 mph - N/A   Clear
4:35 PM 77.0 °F 55.4 °F 47% 30.24 in 10.0 mi East 6.9 mph - N/A   Scattered Clouds
4:55 PM 77.0 °F 55.4 °F 47% 30.24 in 10.0 mi East 5.8 mph - N/A   Clear
5:15 PM 77.0 °F 53.6 °F 44% 30.25 in 10.0 mi SE 6.9 mph - N/A   Clear
5:35 PM 75.2 °F 55.4 °F 50% 30.25 in 10.0 mi ESE 5.8 mph - N/A   Clear
5:55 PM 73.4 °F 55.4 °F 53% 30.26 in 10.0 mi Calm Calm - N/A   Clear
6:15 PM 69.8 °F 55.4 °F 60% 30.27 in 10.0 mi Calm Calm - N/A   Scattered Clouds
6:35 PM 71.6 °F 59.0 °F 64% 30.28 in 10.0 mi ENE 9.2 mph - N/A   Mostly Cloudy
6:55 PM 69.8 °F 60.8 °F 73% 30.28 in 10.0 mi ENE 9.2 mph - N/A   Scattered Clouds
7:15 PM 69.8 °F 60.8 °F 73% 30.29 in 10.0 mi ENE 8.1 mph - N/A   Clear
7:35 PM 68.0 °F 60.8 °F 78% 30.30 in 10.0 mi ENE 6.9 mph - N/A   Clear
7:55 PM 68.0 °F 60.8 °F 78% 30.30 in 10.0 mi ENE 8.1 mph - N/A   Mostly Cloudy
8:15 PM 68.0 °F 60.8 °F 78% 30.31 in 10.0 mi ENE 6.9 mph - N/A   Mostly Cloudy
8:35 PM 68.0 °F 60.8 °F 78% 30.31 in 10.0 mi ENE 6.9 mph - N/A   Mostly Cloudy
8:55 PM 66.2 °F 60.8 °F 83% 30.32 in 10.0 mi ENE 6.9 mph - N/A   Mostly Cloudy
9:15 PM 64.4 °F 59.0 °F 83% 30.32 in 10.0 mi ENE 4.6 mph - N/A   Scattered Clouds
9:35 PM 64.4 °F 59.0 °F 83% 30.32 in 10.0 mi NE 4.6 mph - N/A   Clear
9:55 PM 62.6 °F 60.8 °F 94% 30.32 in 10.0 mi NE 4.6 mph - N/A   Clear
10:15 PM 62.6 °F 59.0 °F 88% 30.32 in 10.0 mi ENE 4.6 mph - N/A   Clear
10:35 PM 62.6 °F 60.8 °F 94% 30.33 in 10.0 mi ENE 4.6 mph - N/A   Mostly Cloudy
10:55 PM 62.6 °F 60.8 °F 94% 30.33 in 10.0 mi NE 4.6 mph - N/A   Overcast
11:15 PM 62.6 °F 59.0 °F 88% 30.33 in 10.0 mi ENE 4.6 mph - N/A   Mostly Cloudy
11:35 PM 60.8 °F 59.0 °F 94% 30.32 in 10.0 mi ENE 4.6 mph - N/A   Scattered Clouds
11:55 PM 60.8 °F 59.0 °F 94% 30.32 in 10.0 mi NE 5.8 mph - N/A   Clear